Year,Month,Day,Hour,Minute,Value (Times are PST for temperature in C)
2016,08,20,00,00,22.20
2016,08,20,00,01,22.20
2016,08,20,00,02,22.20
2016,08,20,00,03,22.20
2016,08,20,00,04,22.10
2016,08,20,00,05,22.00
2016,08,20,00,06,22.00
2016,08,20,00,07,22.00
2016,08,20,00,08,21.90
2016,08,20,00,09,21.90
2016,08,20,00,10,21.80
2016,08,20,00,11,21.80
2016,08,20,00,12,21.80
2016,08,20,00,13,21.70
2016,08,20,00,14,21.70
2016,08,20,00,15,21.70
2016,08,20,00,16,21.60
2016,08,20,00,17,21.60
2016,08,20,00,18,21.60
2016,08,20,00,19,21.50
2016,08,20,00,20,21.50
2016,08,20,00,21,21.50
2016,08,20,00,22,21.40
2016,08,20,00,23,21.40
2016,08,20,00,24,21.40
2016,08,20,00,25,21.30
2016,08,20,00,26,21.30
2016,08,20,00,27,21.30
2016,08,20,00,28,21.20
2016,08,20,00,29,21.20
2016,08,20,00,30,21.10
2016,08,20,00,31,21.10
2016,08,20,00,32,21.10
2016,08,20,00,33,21.00
2016,08,20,00,34,21.00
2016,08,20,00,35,21.00
2016,08,20,00,36,20.90
2016,08,20,00,37,20.90
2016,08,20,00,38,20.80
2016,08,20,00,39,20.70
2016,08,20,00,40,20.70
2016,08,20,00,41,20.60
2016,08,20,00,42,20.60
2016,08,20,00,43,20.60
2016,08,20,00,44,20.60
2016,08,20,00,45,20.60
2016,08,20,00,46,20.60
2016,08,20,00,47,20.60
2016,08,20,00,48,20.60
2016,08,20,00,49,20.60
2016,08,20,00,50,20.60
2016,08,20,00,51,20.70
2016,08,20,00,52,20.70
2016,08,20,00,53,20.70
2016,08,20,00,54,20.70
2016,08,20,00,55,20.70
2016,08,20,00,56,20.70
2016,08,20,00,57,20.70
2016,08,20,00,58,20.80
2016,08,20,00,59,20.80
2016,08,20,01,00,20.80
2016,08,20,01,01,20.90
2016,08,20,01,02,20.90
2016,08,20,01,03,20.90
2016,08,20,01,04,21.00
2016,08,20,01,05,21.00
2016,08,20,01,06,21.00
2016,08,20,01,07,21.00
2016,08,20,01,08,20.90
2016,08,20,01,09,20.90
2016,08,20,01,10,20.90
2016,08,20,01,11,20.90
2016,08,20,01,12,20.90
2016,08,20,01,13,20.90
2016,08,20,01,14,20.90
2016,08,20,01,15,21.00
2016,08,20,01,16,21.00
2016,08,20,01,17,21.00
2016,08,20,01,18,21.10
2016,08,20,01,19,21.10
2016,08,20,01,20,21.20
2016,08,20,01,21,21.20
2016,08,20,01,22,21.30
2016,08,20,01,23,21.30
2016,08,20,01,24,21.30
2016,08,20,01,25,21.40
2016,08,20,01,26,21.40
2016,08,20,01,27,21.40
2016,08,20,01,28,21.40
2016,08,20,01,29,21.30
2016,08,20,01,30,21.30
2016,08,20,01,31,21.30
2016,08,20,01,32,21.30
2016,08,20,01,33,21.30
2016,08,20,01,34,21.20
2016,08,20,01,35,21.20
2016,08,20,01,36,21.20
2016,08,20,01,37,21.20
2016,08,20,01,38,21.20
2016,08,20,01,39,21.20
2016,08,20,01,40,21.20
2016,08,20,01,41,21.20
2016,08,20,01,42,21.20
2016,08,20,01,43,21.20
2016,08,20,01,44,21.20
2016,08,20,01,45,21.10
2016,08,20,01,46,21.10
2016,08,20,01,47,21.10
2016,08,20,01,48,21.10
2016,08,20,01,49,21.00
2016,08,20,01,50,21.00
2016,08,20,01,51,21.00
2016,08,20,01,52,21.00
2016,08,20,01,53,21.00
2016,08,20,01,54,21.00
2016,08,20,01,55,21.10
2016,08,20,01,56,21.10
2016,08,20,01,57,21.10
2016,08,20,01,58,21.10
2016,08,20,01,59,21.10
2016,08,20,02,00,21.20
2016,08,20,02,01,21.20
2016,08,20,02,02,21.20
2016,08,20,02,03,21.20
2016,08,20,02,04,21.20
2016,08,20,02,05,21.10
2016,08,20,02,06,21.10
2016,08,20,02,07,21.10
2016,08,20,02,08,21.10
2016,08,20,02,09,21.10
2016,08,20,02,10,21.00
2016,08,20,02,11,21.00
2016,08,20,02,12,21.00
2016,08,20,02,13,21.00
2016,08,20,02,14,20.90
2016,08,20,02,15,20.90
2016,08,20,02,16,20.90
2016,08,20,02,17,20.90
2016,08,20,02,18,20.90
2016,08,20,02,19,20.90
2016,08,20,02,20,20.90
2016,08,20,02,21,20.90
2016,08,20,02,22,20.90
2016,08,20,02,23,20.80
2016,08,20,02,24,20.80
2016,08,20,02,25,20.80
2016,08,20,02,26,20.80
2016,08,20,02,27,20.70
2016,08,20,02,28,20.70
2016,08,20,02,29,20.70
2016,08,20,02,30,20.70
2016,08,20,02,31,20.60
2016,08,20,02,32,20.60
2016,08,20,02,33,20.60
2016,08,20,02,34,20.50
2016,08,20,02,35,20.50
2016,08,20,02,36,20.40
2016,08,20,02,37,20.40
2016,08,20,02,38,20.40
2016,08,20,02,39,20.30
2016,08,20,02,40,20.30
2016,08,20,02,41,20.30
2016,08,20,02,42,20.20
2016,08,20,02,43,20.20
2016,08,20,02,44,20.10
2016,08,20,02,45,20.10
2016,08,20,02,46,20.00
2016,08,20,02,47,20.00
2016,08,20,02,48,19.90
2016,08,20,02,49,19.90
2016,08,20,02,50,19.90
2016,08,20,02,51,19.80
2016,08,20,02,52,19.80
2016,08,20,02,53,19.80
2016,08,20,02,54,19.70
2016,08,20,02,55,19.70
2016,08,20,02,56,19.70
2016,08,20,02,57,19.70
2016,08,20,02,58,19.70
2016,08,20,02,59,19.60
2016,08,20,03,00,19.70
2016,08,20,03,01,19.70
2016,08,20,03,02,19.70
2016,08,20,03,03,19.70
2016,08,20,03,04,19.70
2016,08,20,03,05,19.70
2016,08,20,03,06,19.70
2016,08,20,03,07,19.70
2016,08,20,03,08,19.70
2016,08,20,03,09,19.70
2016,08,20,03,10,19.70
2016,08,20,03,11,19.70
2016,08,20,03,12,19.60
2016,08,20,03,13,19.50
2016,08,20,03,14,19.50
2016,08,20,03,15,19.40
2016,08,20,03,16,19.30
2016,08,20,03,17,19.30
2016,08,20,03,18,19.30
2016,08,20,03,19,19.20
2016,08,20,03,20,19.20
2016,08,20,03,21,19.20
2016,08,20,03,22,19.10
2016,08,20,03,23,19.10
2016,08,20,03,24,19.10
2016,08,20,03,25,19.20
2016,08,20,03,26,19.20
2016,08,20,03,27,19.20
2016,08,20,03,28,19.10
2016,08,20,03,29,19.10
2016,08,20,03,30,19.10
2016,08,20,03,31,19.10
2016,08,20,03,32,19.10
2016,08,20,03,33,19.10
2016,08,20,03,34,19.10
2016,08,20,03,35,19.20
2016,08,20,03,36,19.20
2016,08,20,03,37,19.30
2016,08,20,03,38,19.30
2016,08,20,03,39,19.30
2016,08,20,03,40,19.30
2016,08,20,03,41,19.30
2016,08,20,03,42,19.30
2016,08,20,03,43,19.30
2016,08,20,03,44,19.20
2016,08,20,03,45,19.20
2016,08,20,03,46,19.10
2016,08,20,03,47,19.10
2016,08,20,03,48,19.00
2016,08,20,03,49,19.00
2016,08,20,03,50,18.90
2016,08,20,03,51,18.90
2016,08,20,03,52,18.90
2016,08,20,03,53,18.80
2016,08,20,03,54,18.80
2016,08,20,03,55,18.80
2016,08,20,03,56,18.80
2016,08,20,03,57,18.80
2016,08,20,03,58,18.80
2016,08,20,03,59,18.70
2016,08,20,04,00,18.70
2016,08,20,04,01,18.70
2016,08,20,04,02,18.70
2016,08,20,04,03,18.70
2016,08,20,04,04,18.70
2016,08,20,04,05,18.70
2016,08,20,04,06,18.70
2016,08,20,04,07,18.70
2016,08,20,04,08,18.70
2016,08,20,04,09,18.70
2016,08,20,04,10,18.70
2016,08,20,04,11,18.70
2016,08,20,04,12,18.70
2016,08,20,04,13,18.70
2016,08,20,04,14,18.70
2016,08,20,04,15,18.70
2016,08,20,04,16,18.70
2016,08,20,04,17,18.70
2016,08,20,04,18,18.70
2016,08,20,04,19,18.70
2016,08,20,04,20,18.70
2016,08,20,04,21,18.70
2016,08,20,04,22,18.70
2016,08,20,04,23,18.70
2016,08,20,04,24,18.70
2016,08,20,04,25,18.70
2016,08,20,04,26,18.70
2016,08,20,04,27,18.70
2016,08,20,04,28,18.80
2016,08,20,04,29,18.80
2016,08,20,04,30,18.80
2016,08,20,04,31,18.80
2016,08,20,04,32,18.90
2016,08,20,04,33,18.90
2016,08,20,04,34,18.90
2016,08,20,04,35,19.00
2016,08,20,04,36,19.10
2016,08,20,04,37,19.10
2016,08,20,04,38,19.20
2016,08,20,04,39,19.20
2016,08,20,04,40,19.20
2016,08,20,04,41,19.20
2016,08,20,04,42,19.30
2016,08,20,04,43,19.30
2016,08,20,04,44,19.30
2016,08,20,04,45,19.40
2016,08,20,04,46,19.40
2016,08,20,04,47,19.50
2016,08,20,04,48,19.70
2016,08,20,04,49,19.70
2016,08,20,04,50,19.80
2016,08,20,04,51,19.90
2016,08,20,04,52,19.90
2016,08,20,04,53,19.90
2016,08,20,04,54,19.90
2016,08,20,04,55,19.90
2016,08,20,04,56,19.90
2016,08,20,04,57,19.90
2016,08,20,04,58,19.90
2016,08,20,04,59,19.90
2016,08,20,05,00,19.90
2016,08,20,05,01,19.80
2016,08,20,05,02,19.80
2016,08,20,05,03,19.80
2016,08,20,05,04,19.70
2016,08,20,05,05,19.60
2016,08,20,05,06,19.60
2016,08,20,05,07,19.50
2016,08,20,05,08,19.40
2016,08,20,05,09,19.40
2016,08,20,05,10,19.30
2016,08,20,05,11,19.20
2016,08,20,05,12,19.20
2016,08,20,05,13,19.10
2016,08,20,05,14,19.10
2016,08,20,05,15,19.10
2016,08,20,05,16,19.00
2016,08,20,05,17,19.00
2016,08,20,05,18,18.90
2016,08,20,05,19,18.90
2016,08,20,05,20,18.80
2016,08,20,05,21,18.80
2016,08,20,05,22,18.80
2016,08,20,05,23,18.70
2016,08,20,05,24,18.70
2016,08,20,05,25,18.60
2016,08,20,05,26,18.60
2016,08,20,05,27,18.50
2016,08,20,05,28,18.50
2016,08,20,05,29,18.40
2016,08,20,05,30,18.30
2016,08,20,05,31,18.20
2016,08,20,05,32,18.10
2016,08,20,05,33,18.00
2016,08,20,05,34,18.00
2016,08,20,05,35,17.90
2016,08,20,05,36,17.80
2016,08,20,05,37,17.80
2016,08,20,05,38,17.70
2016,08,20,05,39,17.60
2016,08,20,05,40,17.60
2016,08,20,05,41,17.50
2016,08,20,05,42,17.40
2016,08,20,05,43,17.40
2016,08,20,05,44,17.30
2016,08,20,05,45,17.30
2016,08,20,05,46,17.20
2016,08,20,05,47,17.20
2016,08,20,05,48,17.20
2016,08,20,05,49,17.10
2016,08,20,05,50,17.10
2016,08,20,05,51,17.10
2016,08,20,05,52,17.00
2016,08,20,05,53,17.00
2016,08,20,05,54,17.00
2016,08,20,05,55,16.90
2016,08,20,05,56,16.90
2016,08,20,05,57,16.90
2016,08,20,05,58,16.80
2016,08,20,05,59,16.80
2016,08,20,06,00,16.80
2016,08,20,06,01,16.80
2016,08,20,06,02,16.80
2016,08,20,06,03,16.70
2016,08,20,06,04,16.70
2016,08,20,06,05,16.70
2016,08,20,06,06,16.70
2016,08,20,06,07,16.70
2016,08,20,06,08,16.70
2016,08,20,06,09,16.70
2016,08,20,06,10,16.70
2016,08,20,06,11,16.60
2016,08,20,06,12,16.60
2016,08,20,06,13,16.70
2016,08,20,06,14,16.70
2016,08,20,06,15,16.70
2016,08,20,06,16,16.70
2016,08,20,06,17,16.70
2016,08,20,06,18,16.60
2016,08,20,06,19,16.60
2016,08,20,06,20,16.60
2016,08,20,06,21,16.60
2016,08,20,06,22,16.60
2016,08,20,06,23,16.60
2016,08,20,06,24,16.60
2016,08,20,06,25,16.60
2016,08,20,06,26,16.60
2016,08,20,06,27,16.50
2016,08,20,06,28,16.50
2016,08,20,06,29,16.50
2016,08,20,06,30,16.50
2016,08,20,06,31,16.50
2016,08,20,06,32,16.40
2016,08,20,06,33,16.40
2016,08,20,06,34,16.40
2016,08,20,06,35,16.40
2016,08,20,06,36,16.40
2016,08,20,06,37,16.40
2016,08,20,06,38,16.40
2016,08,20,06,39,16.40
2016,08,20,06,40,16.40
2016,08,20,06,41,16.40
2016,08,20,06,42,16.40
2016,08,20,06,43,16.40
2016,08,20,06,44,16.40
2016,08,20,06,45,16.40
2016,08,20,06,46,16.40
2016,08,20,06,47,16.40
2016,08,20,06,48,16.40
2016,08,20,06,49,16.40
2016,08,20,06,50,16.40
2016,08,20,06,51,16.40
2016,08,20,06,52,16.40
2016,08,20,06,53,16.40
2016,08,20,06,54,16.40
2016,08,20,06,55,16.40
2016,08,20,06,56,16.40
2016,08,20,06,57,16.40
2016,08,20,06,58,16.40
2016,08,20,06,59,16.40
2016,08,20,07,00,16.40
2016,08,20,07,01,16.40
2016,08,20,07,02,16.50
2016,08,20,07,03,16.50
2016,08,20,07,04,16.50
2016,08,20,07,05,16.50
2016,08,20,07,06,16.50
2016,08,20,07,07,16.50
2016,08,20,07,08,16.50
2016,08,20,07,09,16.50
2016,08,20,07,10,16.50
2016,08,20,07,11,16.50
2016,08,20,07,12,16.60
2016,08,20,07,13,16.60
2016,08,20,07,14,16.50
2016,08,20,07,15,16.60
2016,08,20,07,16,16.60
2016,08,20,07,17,16.60
2016,08,20,07,18,16.60
2016,08,20,07,19,16.60
2016,08,20,07,20,16.70
2016,08,20,07,21,16.70
2016,08,20,07,22,16.70
2016,08,20,07,23,16.70
2016,08,20,07,24,16.80
2016,08,20,07,25,16.80
2016,08,20,07,26,16.90
2016,08,20,07,27,17.00
2016,08,20,07,28,17.00
2016,08,20,07,29,17.10
2016,08,20,07,30,17.20
2016,08,20,07,31,17.30
2016,08,20,07,32,17.40
2016,08,20,07,33,17.50
2016,08,20,07,34,17.50
2016,08,20,07,35,17.60
2016,08,20,07,36,17.70
2016,08,20,07,37,17.80
2016,08,20,07,38,17.90
2016,08,20,07,39,17.90
2016,08,20,07,40,18.00
2016,08,20,07,41,18.10
2016,08,20,07,42,18.20
2016,08,20,07,43,18.30
2016,08,20,07,44,18.40
2016,08,20,07,45,18.50
2016,08,20,07,46,18.70
2016,08,20,07,47,18.80
2016,08,20,07,48,18.90
2016,08,20,07,49,19.00
2016,08,20,07,50,19.10
2016,08,20,07,51,19.20
2016,08,20,07,52,19.30
2016,08,20,07,53,19.40
2016,08,20,07,54,19.50
2016,08,20,07,55,19.60
2016,08,20,07,56,19.70
2016,08,20,07,57,19.70
2016,08,20,07,58,19.80
2016,08,20,07,59,19.80
2016,08,20,08,00,19.80
2016,08,20,08,01,19.90
2016,08,20,08,02,19.90
2016,08,20,08,03,19.90
2016,08,20,08,04,20.00
2016,08,20,08,05,20.00
2016,08,20,08,06,20.00
2016,08,20,08,07,20.10
2016,08,20,08,08,20.10
2016,08,20,08,09,20.20
2016,08,20,08,10,20.20
2016,08,20,08,11,20.30
2016,08,20,08,12,20.30
2016,08,20,08,13,20.30
2016,08,20,08,14,20.40
2016,08,20,08,15,20.40
2016,08,20,08,16,20.40
2016,08,20,08,17,20.50
2016,08,20,08,18,20.50
2016,08,20,08,19,20.60
2016,08,20,08,20,20.60
2016,08,20,08,21,20.60
2016,08,20,08,22,20.70
2016,08,20,08,23,20.70
2016,08,20,08,24,20.70
2016,08,20,08,25,20.80
2016,08,20,08,26,20.80
2016,08,20,08,27,20.90
2016,08,20,08,28,20.90
2016,08,20,08,29,20.90
2016,08,20,08,30,21.00
2016,08,20,08,31,21.10
2016,08,20,08,32,21.10
2016,08,20,08,33,21.10
2016,08,20,08,34,21.20
2016,08,20,08,35,21.20
2016,08,20,08,36,21.20
2016,08,20,08,37,21.20
2016,08,20,08,38,21.20
2016,08,20,08,39,21.20
2016,08,20,08,40,21.30
2016,08,20,08,41,21.30
2016,08,20,08,42,21.30
2016,08,20,08,43,21.40
2016,08,20,08,44,21.40
2016,08,20,08,45,21.50
2016,08,20,08,46,21.50
2016,08,20,08,47,21.60
2016,08,20,08,48,21.60
2016,08,20,08,49,21.70
2016,08,20,08,50,21.70
2016,08,20,08,51,21.70
2016,08,20,08,52,21.80
2016,08,20,08,53,21.80
2016,08,20,08,54,21.80
2016,08,20,08,55,21.80
2016,08,20,08,56,21.80
2016,08,20,08,57,21.80
2016,08,20,08,58,21.90
2016,08,20,08,59,21.90
2016,08,20,09,00,21.90
2016,08,20,09,01,21.90
2016,08,20,09,02,21.90
2016,08,20,09,03,21.90
2016,08,20,09,04,21.90
2016,08,20,09,05,22.00
2016,08,20,09,06,22.00
2016,08,20,09,07,22.10
2016,08,20,09,08,22.10
2016,08,20,09,09,22.10
2016,08,20,09,10,22.20
2016,08,20,09,11,22.20
2016,08,20,09,12,22.20
2016,08,20,09,13,22.30
2016,08,20,09,14,22.30
2016,08,20,09,15,22.30
2016,08,20,09,16,22.40
2016,08,20,09,17,22.50
2016,08,20,09,18,22.50
2016,08,20,09,19,22.60
2016,08,20,09,20,22.60
2016,08,20,09,21,22.60
2016,08,20,09,22,22.60
2016,08,20,09,23,22.70
2016,08,20,09,24,22.70
2016,08,20,09,25,22.70
2016,08,20,09,26,22.80
2016,08,20,09,27,22.80
2016,08,20,09,28,22.80
2016,08,20,09,29,22.90
2016,08,20,09,30,22.90
2016,08,20,09,31,22.90
2016,08,20,09,32,22.90
2016,08,20,09,33,22.90
2016,08,20,09,34,22.90
2016,08,20,09,35,22.90
2016,08,20,09,36,22.90
2016,08,20,09,37,23.00
2016,08,20,09,38,23.00
2016,08,20,09,39,23.00
2016,08,20,09,40,23.00
2016,08,20,09,41,23.00
2016,08,20,09,42,23.00
2016,08,20,09,43,23.10
2016,08,20,09,44,23.10
2016,08,20,09,45,23.20
2016,08,20,09,46,23.20
2016,08,20,09,47,23.20
2016,08,20,09,48,23.20
2016,08,20,09,49,23.20
2016,08,20,09,50,23.20
2016,08,20,09,51,23.30
2016,08,20,09,52,23.30
2016,08,20,09,53,23.30
2016,08,20,09,54,23.40
2016,08,20,09,55,23.40
2016,08,20,09,56,23.40
2016,08,20,09,57,23.40
2016,08,20,09,58,23.50
2016,08,20,09,59,23.50
2016,08,20,10,00,23.50
2016,08,20,10,01,23.60
2016,08,20,10,02,23.60
2016,08,20,10,03,23.60
2016,08,20,10,04,23.60
2016,08,20,10,05,23.60
2016,08,20,10,06,23.70
2016,08,20,10,07,23.70
2016,08,20,10,08,23.80
2016,08,20,10,09,23.80
2016,08,20,10,10,23.80
2016,08,20,10,11,23.90
2016,08,20,10,12,23.90
2016,08,20,10,13,23.90
2016,08,20,10,14,23.90
2016,08,20,10,15,23.90
2016,08,20,10,16,23.90
2016,08,20,10,17,23.90
2016,08,20,10,18,23.90
2016,08,20,10,19,24.00
2016,08,20,10,20,24.00
2016,08,20,10,21,24.10
2016,08,20,10,22,24.00
2016,08,20,10,23,23.80
2016,08,20,10,24,23.70
2016,08,20,10,25,23.50
2016,08,20,10,26,23.40
2016,08,20,10,27,23.30
2016,08,20,10,28,23.20
2016,08,20,10,29,23.10
2016,08,20,10,30,22.90
2016,08,20,10,31,22.80
2016,08,20,10,32,22.70
2016,08,20,10,33,22.60
2016,08,20,10,34,22.60
2016,08,20,10,35,22.70
2016,08,20,10,36,22.70
2016,08,20,10,37,22.80
2016,08,20,10,38,22.90
2016,08,20,10,39,23.00
2016,08,20,10,40,23.10
2016,08,20,10,41,23.20
2016,08,20,10,42,23.20
2016,08,20,10,43,23.30
2016,08,20,10,44,23.30
2016,08,20,10,45,23.40
2016,08,20,10,46,23.40
2016,08,20,10,47,23.50
2016,08,20,10,48,23.50
2016,08,20,10,49,23.50
2016,08,20,10,50,23.60
2016,08,20,10,51,23.60
2016,08,20,10,52,23.50
2016,08,20,10,53,23.50
2016,08,20,10,54,23.50
2016,08,20,10,55,23.50
2016,08,20,10,56,23.50
2016,08,20,10,57,23.50
2016,08,20,10,58,23.50
2016,08,20,10,59,23.50
2016,08,20,11,00,23.60
2016,08,20,11,01,23.60
2016,08,20,11,02,23.50
2016,08,20,11,03,23.50
2016,08,20,11,04,23.50
2016,08,20,11,05,23.50
2016,08,20,11,06,23.50
2016,08,20,11,07,23.50
2016,08,20,11,08,23.50
2016,08,20,11,09,23.40
2016,08,20,11,10,23.40
2016,08,20,11,11,23.40
2016,08,20,11,12,23.30
2016,08,20,11,13,23.40
2016,08,20,11,14,23.40
2016,08,20,11,15,23.40
2016,08,20,11,16,23.40
2016,08,20,11,17,23.30
2016,08,20,11,18,23.30
2016,08,20,11,19,23.20
2016,08,20,11,20,23.20
2016,08,20,11,21,23.20
2016,08,20,11,22,23.20
2016,08,20,11,23,23.30
2016,08,20,11,24,23.40
2016,08,20,11,25,23.50
2016,08,20,11,26,23.70
2016,08,20,11,27,23.70
2016,08,20,11,28,23.80
2016,08,20,11,29,23.80
2016,08,20,11,30,23.80
2016,08,20,11,31,23.80
2016,08,20,11,32,23.80
2016,08,20,11,33,23.80
2016,08,20,11,34,23.70
2016,08,20,11,35,23.50
2016,08,20,11,36,23.30
2016,08,20,11,37,23.00
2016,08,20,11,38,22.80
2016,08,20,11,39,22.60
2016,08,20,11,40,22.50
2016,08,20,11,41,22.30
2016,08,20,11,42,22.30
2016,08,20,11,43,22.20
2016,08,20,11,44,22.10
2016,08,20,11,45,22.10
2016,08,20,11,46,22.10
2016,08,20,11,47,22.10
2016,08,20,11,48,22.00
2016,08,20,11,49,22.00
2016,08,20,11,50,22.00
2016,08,20,11,51,22.00
2016,08,20,11,52,22.00
2016,08,20,11,53,21.90
2016,08,20,11,54,21.90
2016,08,20,11,55,22.00
2016,08,20,11,56,22.10
2016,08,20,11,57,22.20
2016,08,20,11,58,22.30
2016,08,20,11,59,22.30
2016,08,20,12,00,22.30
2016,08,20,12,01,22.30
2016,08,20,12,02,22.40
2016,08,20,12,03,22.40
2016,08,20,12,04,22.50
2016,08,20,12,05,22.50
2016,08,20,12,06,22.50
2016,08,20,12,07,22.50
2016,08,20,12,08,22.50
2016,08,20,12,09,22.50
2016,08,20,12,10,22.60
2016,08,20,12,11,22.60
2016,08,20,12,12,22.60
2016,08,20,12,13,22.60
2016,08,20,12,14,22.70
2016,08,20,12,15,22.70
2016,08,20,12,16,22.60
2016,08,20,12,17,22.50
2016,08,20,12,18,22.40
2016,08,20,12,19,22.30
2016,08,20,12,20,22.30
2016,08,20,12,21,22.30
2016,08,20,12,22,22.30
2016,08,20,12,23,22.30
2016,08,20,12,24,22.40
2016,08,20,12,25,22.40
2016,08,20,12,26,22.40
2016,08,20,12,27,22.50
2016,08,20,12,28,22.50
2016,08,20,12,29,22.60
2016,08,20,12,30,22.70
2016,08,20,12,31,22.70
2016,08,20,12,32,22.80
2016,08,20,12,33,23.00
2016,08,20,12,34,23.10
2016,08,20,12,35,23.20
2016,08,20,12,36,23.40
2016,08,20,12,37,23.50
2016,08,20,12,38,23.70
2016,08,20,12,39,23.80
2016,08,20,12,40,24.00
2016,08,20,12,41,24.10
2016,08,20,12,42,24.20
2016,08,20,12,43,24.20
2016,08,20,12,44,24.30
2016,08,20,12,45,24.30
2016,08,20,12,46,24.30
2016,08,20,12,47,24.30
2016,08,20,12,48,24.30
2016,08,20,12,49,24.40
2016,08,20,12,50,24.40
2016,08,20,12,51,24.50
2016,08,20,12,52,24.60
2016,08,20,12,53,24.80
2016,08,20,12,54,24.90
2016,08,20,12,55,25.00
2016,08,20,12,56,25.20
2016,08,20,12,57,25.30
2016,08,20,12,58,25.40
2016,08,20,12,59,25.50
2016,08,20,13,00,25.70
2016,08,20,13,01,25.80
2016,08,20,13,02,25.90
2016,08,20,13,03,26.10
2016,08,20,13,04,26.20
2016,08,20,13,05,26.20
2016,08,20,13,06,26.20
2016,08,20,13,07,26.20
2016,08,20,13,08,26.30
2016,08,20,13,09,26.30
2016,08,20,13,10,26.40
2016,08,20,13,11,26.50
2016,08,20,13,12,26.50
2016,08,20,13,13,26.60
2016,08,20,13,14,26.60
2016,08,20,13,15,26.60
2016,08,20,13,16,26.70
2016,08,20,13,17,26.80
2016,08,20,13,18,26.80
2016,08,20,13,19,26.90
2016,08,20,13,20,26.90
2016,08,20,13,21,26.80
2016,08,20,13,22,26.60
2016,08,20,13,23,26.40
2016,08,20,13,24,26.30
2016,08,20,13,25,26.10
2016,08,20,13,26,26.00
2016,08,20,13,27,25.80
2016,08,20,13,28,25.60
2016,08,20,13,29,25.40
2016,08,20,13,30,25.20
2016,08,20,13,31,25.10
2016,08,20,13,32,25.00
2016,08,20,13,33,24.80
2016,08,20,13,34,24.60
2016,08,20,13,35,24.40
2016,08,20,13,36,24.20
2016,08,20,13,37,24.00
2016,08,20,13,38,23.90
2016,08,20,13,39,23.90
2016,08,20,13,40,23.80
2016,08,20,13,41,23.80
2016,08,20,13,42,23.80
2016,08,20,13,43,23.80
2016,08,20,13,44,23.80
2016,08,20,13,45,23.90
2016,08,20,13,46,23.90
2016,08,20,13,47,23.90
2016,08,20,13,48,23.90
2016,08,20,13,49,24.00
2016,08,20,13,50,24.00
2016,08,20,13,51,24.00
2016,08,20,13,52,23.90
2016,08,20,13,53,23.90
2016,08,20,13,54,23.90
2016,08,20,13,55,23.90
2016,08,20,13,56,24.00
2016,08,20,13,57,24.00
2016,08,20,13,58,24.10
2016,08,20,13,59,24.10
2016,08,20,14,00,24.20
2016,08,20,14,01,24.20
2016,08,20,14,02,24.20
2016,08,20,14,03,24.20
2016,08,20,14,04,24.10
2016,08,20,14,05,24.10
2016,08,20,14,06,24.10
2016,08,20,14,07,24.10
2016,08,20,14,08,24.10
2016,08,20,14,09,24.10
2016,08,20,14,10,24.20
2016,08,20,14,11,24.20
2016,08,20,14,12,24.20
2016,08,20,14,13,24.20
2016,08,20,14,14,24.20
2016,08,20,14,15,24.20
2016,08,20,14,16,24.20
2016,08,20,14,17,24.20
2016,08,20,14,18,24.20
2016,08,20,14,19,24.20
2016,08,20,14,20,24.10
2016,08,20,14,21,24.10
2016,08,20,14,22,24.10
2016,08,20,14,23,24.10
2016,08,20,14,24,24.20
2016,08,20,14,25,24.20
2016,08,20,14,26,24.20
2016,08,20,14,27,24.20
2016,08,20,14,28,24.20
2016,08,20,14,29,24.20
2016,08,20,14,30,24.20
2016,08,20,14,31,24.20
2016,08,20,14,32,24.20
2016,08,20,14,33,24.20
2016,08,20,14,34,24.20
2016,08,20,14,35,24.20
2016,08,20,14,36,24.30
2016,08,20,14,37,24.30
2016,08,20,14,38,24.40
2016,08,20,14,39,24.50
2016,08,20,14,40,24.60
2016,08,20,14,41,24.80
2016,08,20,14,42,24.80
2016,08,20,14,43,24.90
2016,08,20,14,44,25.00
2016,08,20,14,45,25.00
2016,08,20,14,46,25.00
2016,08,20,14,47,25.10
2016,08,20,14,48,25.10
2016,08,20,14,49,25.10
2016,08,20,14,50,25.10
2016,08,20,14,51,25.10
2016,08,20,14,52,25.10
2016,08,20,14,53,25.10
2016,08,20,14,54,25.10
2016,08,20,14,55,25.10
2016,08,20,14,56,25.00
2016,08,20,14,57,24.90
2016,08,20,14,58,24.90
2016,08,20,14,59,24.90
2016,08,20,15,00,24.90
2016,08,20,15,01,24.80
2016,08,20,15,02,24.80
2016,08,20,15,03,24.70
2016,08,20,15,04,24.70
2016,08,20,15,05,24.60
2016,08,20,15,06,24.50
2016,08,20,15,07,24.50
2016,08,20,15,08,24.40
2016,08,20,15,09,24.40
2016,08,20,15,10,24.40
2016,08,20,15,11,24.40
2016,08,20,15,12,24.40
2016,08,20,15,13,24.40
2016,08,20,15,14,24.50
2016,08,20,15,15,24.50
2016,08,20,15,16,24.60
2016,08,20,15,17,24.70
2016,08,20,15,18,24.70
2016,08,20,15,19,24.70
2016,08,20,15,20,24.70
2016,08,20,15,21,24.70
2016,08,20,15,22,24.70
2016,08,20,15,23,24.80
2016,08,20,15,24,24.80
2016,08,20,15,25,24.80
2016,08,20,15,26,24.80
2016,08,20,15,27,24.90
2016,08,20,15,28,24.90
2016,08,20,15,29,24.90
2016,08,20,15,30,24.90
2016,08,20,15,31,24.90
2016,08,20,15,32,24.90
2016,08,20,15,33,24.90
2016,08,20,15,34,24.90
2016,08,20,15,35,24.80
2016,08,20,15,36,24.80
2016,08,20,15,37,24.80
2016,08,20,15,38,24.80
2016,08,20,15,39,24.70
2016,08,20,15,40,24.80
2016,08,20,15,41,24.80
2016,08,20,15,42,24.80
2016,08,20,15,43,24.80
2016,08,20,15,44,24.80
2016,08,20,15,45,24.80
2016,08,20,15,46,24.90
2016,08,20,15,47,24.90
2016,08,20,15,48,24.90
2016,08,20,15,49,24.90
2016,08,20,15,50,24.90
2016,08,20,15,51,24.80
2016,08,20,15,52,24.90
2016,08,20,15,53,24.90
2016,08,20,15,54,25.00
2016,08,20,15,55,25.10
2016,08,20,15,56,25.20
2016,08,20,15,57,25.30
2016,08,20,15,58,25.40
2016,08,20,15,59,25.50
2016,08,20,16,00,25.60
2016,08,20,16,01,25.70
2016,08,20,16,02,25.80
2016,08,20,16,03,25.90
2016,08,20,16,04,26.00
2016,08,20,16,05,26.10
2016,08,20,16,06,26.30
2016,08,20,16,07,26.40
2016,08,20,16,08,26.50
2016,08,20,16,09,26.60
2016,08,20,16,10,26.70
2016,08,20,16,11,26.70
2016,08,20,16,12,26.70
2016,08,20,16,13,26.70
2016,08,20,16,14,26.80
2016,08,20,16,15,26.80
2016,08,20,16,16,26.80
2016,08,20,16,17,26.90
2016,08,20,16,18,27.00
2016,08,20,16,19,27.20
2016,08,20,16,20,27.30
2016,08,20,16,21,27.40
2016,08,20,16,22,27.50
2016,08,20,16,23,27.60
2016,08,20,16,24,27.80
2016,08,20,16,25,27.80
2016,08,20,16,26,27.90
2016,08,20,16,27,28.00
2016,08,20,16,28,28.00
2016,08,20,16,29,28.00
2016,08,20,16,30,28.10
2016,08,20,16,31,28.20
2016,08,20,16,32,28.20
2016,08,20,16,33,28.20
2016,08,20,16,34,28.20
2016,08,20,16,35,28.20
2016,08,20,16,36,28.20
2016,08,20,16,37,28.20
2016,08,20,16,38,28.30
2016,08,20,16,39,28.30
2016,08,20,16,40,28.40
2016,08,20,16,41,28.50
2016,08,20,16,42,28.60
2016,08,20,16,43,28.70
2016,08,20,16,44,28.70
2016,08,20,16,45,28.80
2016,08,20,16,46,28.80
2016,08,20,16,47,28.90
2016,08,20,16,48,28.90
2016,08,20,16,49,29.00
2016,08,20,16,50,29.00
2016,08,20,16,51,29.10
2016,08,20,16,52,29.10
2016,08,20,16,53,29.10
2016,08,20,16,54,29.00
2016,08,20,16,55,28.90
2016,08,20,16,56,28.80
2016,08,20,16,57,28.60
2016,08,20,16,58,28.40
2016,08,20,16,59,28.20
2016,08,20,17,00,28.00
2016,08,20,17,01,27.90
2016,08,20,17,02,27.70
2016,08,20,17,03,27.60
2016,08,20,17,04,27.50
2016,08,20,17,05,27.30
2016,08,20,17,06,27.10
2016,08,20,17,07,27.00
2016,08,20,17,08,26.90
2016,08,20,17,09,26.80
2016,08,20,17,10,26.70
2016,08,20,17,11,26.70
2016,08,20,17,12,26.70
2016,08,20,17,13,26.60
2016,08,20,17,14,26.50
2016,08,20,17,15,26.50
2016,08,20,17,16,26.50
2016,08,20,17,17,26.50
2016,08,20,17,18,26.50
2016,08,20,17,19,26.50